Regional Weather Roundup
Issued by NWS

Home | Current Version | Previous Version | Graphics & Text | Print | Product List | Glossary On
Versions: 1 2 3 4 5 6 7 8 9 10 11 12 13 14 15 16 17 18 19 20 21 22 23 24 25 26 27 28 29 30 31 32 33 34 35 36 37 38 39 40 41 42 43 44 45 46 47 48 49 50
000
ASUS45 KBOU 282207
RWRCO

WEATHER ROUNDUP FOR COLORADO
NATIONAL WEATHER SERVICE DENVER/BOULDER CO
300 PM MST SAT FEB 28 2015

NOTE: "FAIR" INDICATES FEW OR NO CLOUDS BELOW 12000 FEET WITH NO
SIGNIFICANT WEATHER AND/OR OBSTRUCTIONS TO VISIBILITY.

COZ001>005-013-030-031-282300-
...NORTHWEST COLORADO...

CITY           SKY/WX    TMP DP  RH WIND       PRES   REMARKS
CRAIG          NOT AVBL
HAYDEN         CLOUDY    36  12  38 SE3       29.71S
MEEKER         CLOUDY    38  17  42 SW9       29.70R
MOUNT WERNER   NOT AVBL
STEAMBOAT SPGS CLOUDY    32  13  45 CALM      29.70F
WALDEN         CLOUDY    30  10  43 CALM      29.72S
$$

COZ006>008-011-282300-
...WEST CENTRAL VALLEYS...

CITY           SKY/WX    TMP DP  RH WIND       PRES   REMARKS
GRAND JUNCTION PTSUNNY   40  25  55 S15       29.71F
MONTROSE       CLOUDY    33  29  85 E3        29.75F
EAGLE          PTSUNNY   36  16  44 CALM      29.75S
RIFLE          CLOUDY    41  16  36 VRB5      29.71F
DELTA          CLOUDY    39  32  75 E5        29.77F
NUCLA          CLOUDY    41  28  60 S14       29.76F
$$

COZ017>023-064>068-282300-
...SOUTHWEST COLORADO...

CITY           SKY/WX    TMP DP  RH WIND       PRES   REMARKS
DURANGO        LGT SNOW  30  27  88 SE7       29.81R FOG     WCI  23
CORTEZ         SNOW      33  32  96 NW6       29.79R VSB 1/2 WCI  28
PAGOSA SPRINGS LGT SNOW  32  27  83 S3        29.81S VSB 3/4
TELLURIDE      LGT SNOW  30  23  75 CALM      29.76R
WOLF CREEK PAS SNOW      16  14  93 SW22G32   29.79S VSB 1/4 WCI  -2
$$

COZ009-010-012-014-032>034-037-058>063-282300-
...CENTRAL COLORADO...

CITY           SKY/WX    TMP DP  RH WIND       PRES   REMARKS
ASPEN          LGT SNOW  29  18  63 NE5       29.72R WCI  24
BUENA VISTA    LGT SNOW  28  21  75 NW7       29.77R WCI  20
COPPER MTN     LGT SNOW  19  12  73 MISG      29.71R VSB 1
BERTHOUD PASS  CLOUDY     9   3  78 SE18      29.71S HAZE    WCI -10
COTTONWOOD PAS LGT SNOW  27  21  80 SE7       29.75R WCI  19
GUNNISON       PTSUNNY   25  18  74 SW5       29.81R WCI  19
KREMMLING      CLOUDY    30  10  43 CALM      29.73F
LEADVILLE      LGT SNOW  18  15  88 S16       29.72R FOG     WCI   3
SALIDA         CLOUDY    35  20  55 S9        29.84R WCI  27
SUNLIGHT       SNOW      25  21  86 CALM        N/A  VSB 1/2
WILKERSON PASS CLOUDY    23  16  74 S5        29.77S WCI  17
$$

COZ069>075-282300-
...SAN LUIS VALLEY/SANGRE DE CRISTO MOUNTAINS...

CITY           SKY/WX    TMP DP  RH WIND       PRES   REMARKS
ALAMOSA        CLOUDY    27  19  72 S3        29.81S
LA VETA PASS   SNOW      21  18  86 SW5       29.79R VSB 1/2 WCI  15
SAGUACHE       LGT SNOW  28  21  74 SE8       29.81S WCI  20
$$

COZ035-036-038>040-282300-
...NORTHERN COLORADO FRONT RANGE...

CITY           SKY/WX    TMP DP  RH WIND       PRES   REMARKS
DENVER INTL AP PTSUNNY   21  11  65 CALM      29.94R
DMNS CITY PARK   N/A     25  11  55 NE1G12    29.94R
AURORA         PTSUNNY   20  11  67 N6        29.93R WCI  12
FRONT RANGE AP NOT AVBL
ERIE MUNI ARPT MOSUNNY   23  13  64 CALM      29.95R
BOULDER MUN AP MOSUNNY   25  12  58 N5        29.94R WCI  19
CENTENNIAL     PTSUNNY   21  10  62 N8        29.91R WCI  11
BROOMFIELD     PTSUNNY   23  12  63 N6        29.93S WCI  16
FORT COLLINS   PTSUNNY   28  18  64 N3        29.95F
LONGMONT       PTSUNNY   35  15  42 N7        29.97F WCI  30
$$

COZ041-046-047-076>085-087-088-282300-
...PIKES PEAK/PALMER DIVIDE AND SOUTHERN FOOTHILLS...

CITY           SKY/WX    TMP DP  RH WIND       PRES   REMARKS
COLO. SPRINGS  MOSUNNY   18  13  80 S8        29.90R WCI   8
A. F. ACADEMY  SUNNY     23  14  67 S13       29.86R WCI  11
ELLICOTT       NOT AVBL
FALCON         SUNNY     22  13  68 S6        29.87R WCI  14
FORT CARSON    PTSUNNY   20  14  78 S8        29.89S WCI  10
LIMON          MOSUNNY   19  11  70 N10       29.93F WCI   7
MONUMENT HILL  MOSUNNY   21  10  63 N6        29.84S WCI  14
TRINIDAD       CLOUDY    21  14  74 E5        29.91S WCI  15
$$

COZ042>045-048>051-090-091-282300-
...NORTHEAST COLORADO...

CITY           SKY/WX    TMP DP  RH WIND       PRES   REMARKS
GREELEY ARPT   PTSUNNY   28  14  54 NE12      29.95F WCI  18
AKRON          MOSUNNY   22  14  71 SE6       29.98R WCI  14
BURLINGTON     CLOUDY    19  12  74 SE8       30.03S HAZE    WCI   9
WRAY           CLOUDY    24  13  62 SE6       30.06R WCI  17
STERLING       MOSUNNY   30  16  55 CALM      30.00S
HOLYOKE        NOT AVBL
FORT MORGAN    MOSUNNY   26  13  57 E6        29.99R WCI  19
$$

COZ086-089-092>099-282300-
...SOUTHEAST COLORADO...

CITY           SKY/WX    TMP DP  RH WIND       PRES   REMARKS
PUEBLO         MOSUNNY   20  11  68 VRB6      29.97S WCI  12
LA JUNTA       MOSUNNY   24  14  65 CALM      30.01S
LAMAR          CLOUDY    25  16  68 CALM      30.02S
SPRINGFIELD      N/A     23  15  71 N7        29.98R WCI  15
$$


USA.gov is the U.S. government's official web portal to all federal, state and local government web resources and services.